KAL091 RKSI-KBOS

Flight info

Callsign KAL091
Flight time N/A
Altitude 33000
Route EGOBA2E EGOBA Y697 LANAT Y51 SAMON Y142 GTC Y512 OATIS/N0492F310 R580 OLCOT/N0485F330 R580 OBOYD/N0477F340 R580 OFORD/N0475F330 R580 OGGOE DCT 59N170W 60N160W/N0480F350 61N150W DCT JAGIT DCT 60N130W 59N120W DCT TULAG DCT 54N100W 50N090W/N0479F370 45N080W DCT NOVON DCT WAYGO DCT PONCT JFUND2
Aircraft B77W/H-SDE1E2E3FGHIJ2J3J4J5M1RWXY/LB1D1

Departure

Time 2026-05-07 13:34
Airport Incheon International Airport (RKSI)

Arrival

Time N/A
Airport Boston Logan International Airport (KBOS)
Time Latitude Longitude Altitude Speed Heading
2026-05-07 13:16 37.46720 126.43703 36 ft 0 kts 330°
2026-05-07 13:23 37.46712 126.43708 37 ft 3 kts 333°
2026-05-07 13:23 37.46694 126.43719 35 ft 3 kts 341°
2026-05-07 13:23 37.46676 126.43725 36 ft 3 kts 352°
2026-05-07 13:23 37.46657 126.43727 36 ft 3 kts
2026-05-07 13:24 37.46639 126.43722 36 ft 3 kts 26°
2026-05-07 13:24 37.46625 126.43711 36 ft 3 kts 48°
2026-05-07 13:24 37.46623 126.43708 35 ft 0 kts 52°
2026-05-07 13:26 37.46629 126.43720 36 ft 6 kts 56°
2026-05-07 13:26 37.46651 126.43786 37 ft 9 kts 88°
2026-05-07 13:27 37.46620 126.43851 37 ft 9 kts 140°
2026-05-07 13:27 37.46570 126.43897 37 ft 9 kts 144°
2026-05-07 13:27 37.46519 126.43942 37 ft 9 kts 145°
2026-05-07 13:27 37.46467 126.43988 37 ft 9 kts 145°
2026-05-07 13:28 37.46416 126.44033 37 ft 9 kts 145°
2026-05-07 13:28 37.46366 126.44079 37 ft 9 kts 137°
2026-05-07 13:28 37.46359 126.44154 37 ft 9 kts 70°
2026-05-07 13:28 37.46404 126.44242 37 ft 15 kts 55°
2026-05-07 13:29 37.46464 126.44349 37 ft 15 kts 55°
2026-05-07 13:29 37.46524 126.44455 37 ft 15 kts 57°
2026-05-07 13:29 37.46567 126.44552 37 ft 10 kts 56°
2026-05-07 13:29 37.46574 126.44632 37 ft 10 kts 120°
2026-05-07 13:30 37.46491 126.44718 37 ft 21 kts 144°
2026-05-07 13:30 37.46349 126.44844 37 ft 27 kts 144°
2026-05-07 13:30 37.46198 126.44979 37 ft 27 kts 145°
2026-05-07 13:30 37.46046 126.45113 37 ft 27 kts 145°
2026-05-07 13:31 37.45895 126.45248 37 ft 27 kts 145°
2026-05-07 13:31 37.45744 126.45383 37 ft 27 kts 144°
2026-05-07 13:31 37.45592 126.45517 37 ft 27 kts 145°
2026-05-07 13:31 37.45442 126.45652 37 ft 26 kts 144°
2026-05-07 13:32 37.45343 126.45740 37 ft 9 kts 144°
2026-05-07 13:32 37.45299 126.45792 37 ft 9 kts 114°
2026-05-07 13:32 37.45310 126.45868 37 ft 9 kts 59°
2026-05-07 13:32 37.45351 126.45939 37 ft 10 kts 54°
2026-05-07 13:33 37.45392 126.46012 37 ft 10 kts 54°
2026-05-07 13:33 37.45446 126.46055 37 ft 10 kts 350°
2026-05-07 13:33 37.45562 126.45964 37 ft 47 kts 324°
2026-05-07 13:33 37.46060 126.45521 37 ft 125 kts 324°
2026-05-07 13:34 37.46961 126.44721 61 ft 186 kts 324°
2026-05-07 13:34 37.49056 126.42982 1834 ft 171 kts 326°
2026-05-07 13:34 37.50098 126.42115 2130 ft 190 kts 327°
2026-05-07 13:35 37.51246 126.41167 2406 ft 208 kts 326°
2026-05-07 13:35 37.52484 126.40144 2878 ft 216 kts 326°
2026-05-07 13:35 37.53755 126.39095 3523 ft 221 kts 326°
2026-05-07 13:35 37.55049 126.38029 4149 ft 225 kts 326°
2026-05-07 13:36 37.56423 126.37061 4688 ft 231 kts 340°
2026-05-07 13:36 37.58012 126.36540 5225 ft 233 kts 342°
2026-05-07 13:36 37.59592 126.36006 5523 ft 238 kts 342°
2026-05-07 13:36 37.61175 126.35453 5492 ft 238 kts 343°
2026-05-07 13:37 37.62842 126.35399 5509 ft 254 kts 13°
2026-05-07 13:37 37.64439 126.36509 5489 ft 271 kts 45°
2026-05-07 13:37 37.65376 126.38589 5514 ft 278 kts 68°
2026-05-07 13:37 37.66006 126.40936 5510 ft 285 kts 69°
2026-05-07 13:38 37.66638 126.43307 5497 ft 285 kts 73°
2026-05-07 13:38 37.66795 126.44942 5474 ft 284 kts 95°
2026-05-07 13:38 37.66049 126.48103 6021 ft 284 kts 111°
2026-05-07 13:38 37.65592 126.49658 6411 ft 288 kts 110°
2026-05-07 13:39 37.64665 126.52877 7236 ft 295 kts 111°
2026-05-07 13:39 37.64141 126.54453 7593 ft 295 kts 122°
2026-05-07 13:39 37.62799 126.56401 8055 ft 296 kts 142°
2026-05-07 13:39 37.60709 126.58716 8862 ft 301 kts 142°
2026-05-07 13:40 37.59666 126.59881 9320 ft 303 kts 142°
2026-05-07 13:40 37.58084 126.61659 9975 ft 307 kts 142°
2026-05-07 13:40 37.56472 126.63479 10430 ft 318 kts 143°
2026-05-07 13:40 37.54766 126.65406 10578 ft 340 kts 142°
2026-05-07 13:41 37.52951 126.67465 10765 ft 362 kts 142°
2026-05-07 13:41 37.51023 126.69660 10959 ft 384 kts 142°
2026-05-07 13:41 37.49019 126.71953 11426 ft 395 kts 142°
2026-05-07 13:41 37.46958 126.74310 12034 ft 403 kts 142°
2026-05-07 13:42 37.44878 126.76682 12814 ft 406 kts 143°
2026-05-07 13:42 37.42872 126.79201 13391 ft 415 kts 130°
2026-05-07 13:42 37.41551 126.82516 13899 ft 434 kts 108°
2026-05-07 13:42 37.41189 126.86310 14498 ft 440 kts 90°
2026-05-07 13:43 37.41283 126.90183 14983 ft 448 kts 90°
2026-05-07 13:43 37.41437 126.94121 15575 ft 453 kts 84°
2026-05-07 13:43 37.41949 126.98063 16151 ft 460 kts 79°
2026-05-07 13:43 37.42645 127.02011 16746 ft 466 kts 78°
2026-05-07 13:44 37.43397 127.06008 17331 ft 472 kts 78°
2026-05-07 13:44 37.44139 127.10066 17882 ft 478 kts 79°
2026-05-07 13:44 37.44852 127.14166 18466 ft 482 kts 81°
2026-05-07 13:44 37.45544 127.18323 18959 ft 488 kts 81°
2026-05-07 13:45 37.46228 127.22536 19440 ft 495 kts 81°
2026-05-07 13:45 37.46914 127.26808 19900 ft 501 kts 81°
2026-05-07 13:45 37.47608 127.31125 20377 ft 506 kts 81°
2026-05-07 13:45 37.48303 127.35435 20837 ft 512 kts 81°
2026-05-07 13:46 37.49016 127.39862 21266 ft 518 kts 81°
2026-05-07 13:46 37.49741 127.44334 21706 ft 524 kts 81°
2026-05-07 13:46 37.50483 127.48910 22108 ft 529 kts 80°
2026-05-07 13:46 37.51212 127.53407 22601 ft 533 kts 80°
2026-05-07 13:47 37.51951 127.57993 23058 ft 536 kts 81°
2026-05-07 13:47 37.52440 127.62724 23389 ft 539 kts 91°
2026-05-07 13:47 37.52321 127.67378 23708 ft 539 kts 101°
2026-05-07 13:47 37.51705 127.72005 24158 ft 534 kts 110°
2026-05-07 13:48 37.50600 127.76429 24539 ft 526 kts 117°
2026-05-07 13:48 37.49303 127.80761 24858 ft 531 kts 118°
2026-05-07 13:48 37.47978 127.85113 25180 ft 535 kts 118°
2026-05-07 13:48 37.46646 127.89506 25539 ft 538 kts 118°
2026-05-07 13:49 37.45327 127.93915 25959 ft 540 kts 118°
2026-05-07 13:49 37.44016 127.98350 26346 ft 542 kts 118°
2026-05-07 13:49 37.42707 128.02818 26712 ft 545 kts 118°
2026-05-07 13:49 37.41395 128.07310 27020 ft 549 kts 117°
2026-05-07 13:50 37.40080 128.11826 27355 ft 551 kts 118°
2026-05-07 13:50 37.38755 128.16368 27710 ft 553 kts 118°
2026-05-07 13:50 37.37426 128.20911 28050 ft 555 kts 118°
2026-05-07 13:50 37.36090 128.25469 28377 ft 557 kts 118°
2026-05-07 13:51 37.34743 128.30049 28649 ft 560 kts 118°
2026-05-07 13:51 37.33388 128.34643 28939 ft 562 kts 118°
2026-05-07 13:51 37.32030 128.39240 29334 ft 561 kts 118°
2026-05-07 13:51 37.30676 128.43822 29848 ft 558 kts 118°
2026-05-07 13:52 37.29325 128.48392 30220 ft 558 kts 118°
2026-05-07 13:52 37.27975 128.52951 30550 ft 558 kts 118°
2026-05-07 13:52 37.26616 128.57517 30795 ft 559 kts 118°
2026-05-07 13:53 37.23867 128.66720 30876 ft 564 kts 118°
2026-05-07 13:53 37.21129 128.75890 30855 ft 558 kts 118°
2026-05-07 13:54 37.18409 128.84966 30858 ft 556 kts 118°
2026-05-07 13:54 37.15675 128.94038 30849 ft 556 kts 118°
2026-05-07 13:55 37.12939 129.03086 30862 ft 556 kts 118°
2026-05-07 13:55 37.10191 129.12158 30841 ft 557 kts 118°
2026-05-07 13:56 37.07438 129.21223 30858 ft 557 kts 118°
2026-05-07 13:56 37.04676 129.30287 30848 ft 557 kts 118°
2026-05-07 13:57 37.01906 129.39336 30843 ft 557 kts 118°
2026-05-07 13:57 36.99126 129.48387 30837 ft 557 kts 118°
2026-05-07 13:58 36.96364 129.57360 30838 ft 557 kts 118°
2026-05-07 13:58 36.93578 129.66383 30836 ft 557 kts 118°
2026-05-07 13:59 36.90781 129.75410 30840 ft 556 kts 118°
2026-05-07 13:59 36.87979 129.84424 30828 ft 556 kts 118°
2026-05-07 14:00 36.85178 129.93407 30821 ft 555 kts 118°
2026-05-07 14:00 36.82372 130.02380 30824 ft 554 kts 117°
2026-05-07 14:01 36.79568 130.11316 30823 ft 553 kts 117°
2026-05-07 14:01 36.76758 130.20243 30825 ft 552 kts 117°
2026-05-07 14:02 36.73965 130.29089 30835 ft 553 kts 117°
2026-05-07 14:02 36.72548 130.33561 30970 ft 556 kts 117°
2026-05-07 14:02 36.71128 130.38040 31315 ft 555 kts 117°
2026-05-07 14:02 36.69713 130.42501 31717 ft 552 kts 117°
2026-05-07 14:03 36.68302 130.46944 32051 ft 551 kts 117°
2026-05-07 14:03 36.66891 130.51379 32345 ft 550 kts 117°
2026-05-07 14:03 36.65480 130.55805 32630 ft 550 kts 117°
2026-05-07 14:03 36.64066 130.60228 32771 ft 551 kts 117°
2026-05-07 14:04 36.62646 130.64665 32810 ft 551 kts 117°
2026-05-07 14:04 36.59814 130.73502 32822 ft 547 kts 117°
2026-05-07 14:05 36.57000 130.82257 32818 ft 543 kts 117°
2026-05-07 14:05 36.54194 130.90957 32822 ft 541 kts 117°
2026-05-07 14:06 36.51389 130.99623 32826 ft 540 kts 117°
2026-05-07 14:06 36.48581 131.08276 32831 ft 540 kts 117°
2026-05-07 14:07 36.45764 131.16932 32829 ft 540 kts 117°
2026-05-07 14:07 36.42946 131.25571 32829 ft 540 kts 117°
2026-05-07 14:08 36.40122 131.34204 32835 ft 540 kts 117°
2026-05-07 14:08 36.37867 131.43134 32835 ft 547 kts 106°
2026-05-07 14:09 36.37016 131.52480 32842 ft 552 kts 93°
2026-05-07 14:09 36.37585 131.61992 32836 ft 555 kts 80°
2026-05-07 14:10 36.39212 131.71358 32840 ft 555 kts 78°
2026-05-07 14:10 36.40920 131.80695 32843 ft 555 kts 78°
2026-05-07 14:11 36.42574 131.90047 32846 ft 554 kts 79°
2026-05-07 14:11 36.44177 131.99410 32846 ft 554 kts 79°
2026-05-07 14:12 36.45760 132.08775 32851 ft 554 kts 80°
2026-05-07 14:12 36.47339 132.18146 32850 ft 554 kts 79°
2026-05-07 14:13 36.49205 132.27445 32855 ft 555 kts 76°
2026-05-07 14:13 36.51104 132.36736 32853 ft 554 kts 78°
2026-05-07 14:14 36.52762 132.46087 32853 ft 554 kts 80°
2026-05-07 14:14 36.54290 132.55471 32851 ft 553 kts 80°
2026-05-07 14:15 36.55796 132.64845 32857 ft 553 kts 80°
2026-05-07 14:15 36.57316 132.74225 32857 ft 552 kts 80°
2026-05-07 14:16 36.58838 132.83587 32864 ft 552 kts 80°
2026-05-07 14:16 36.60354 132.92942 32862 ft 551 kts 80°
2026-05-07 14:17 36.61859 133.02297 32867 ft 551 kts 80°
2026-05-07 14:17 36.63354 133.11645 32863 ft 550 kts 80°
2026-05-07 14:18 36.64842 133.20996 32866 ft 550 kts 81°
2026-05-07 14:18 36.66321 133.30344 32867 ft 550 kts 81°
2026-05-07 14:19 36.67792 133.39682 32864 ft 549 kts 81°
2026-05-07 14:19 36.69255 133.49028 32871 ft 549 kts 81°
2026-05-07 14:20 36.70710 133.58365 32869 ft 549 kts 81°
2026-05-07 14:20 36.72157 133.67710 32866 ft 549 kts 81°
2026-05-07 14:21 36.73596 133.77050 32877 ft 549 kts 81°
2026-05-07 14:21 36.75018 133.86325 32868 ft 549 kts 81°
2026-05-07 14:22 36.76442 133.95671 32879 ft 548 kts 81°
2026-05-07 14:22 36.77858 134.05013 32873 ft 548 kts 81°
2026-05-07 14:23 36.79266 134.14357 32877 ft 548 kts 81°
2026-05-07 14:23 36.80666 134.23697 32872 ft 547 kts 81°
2026-05-07 14:24 36.82055 134.33017 32881 ft 546 kts 81°
2026-05-07 14:24 36.83437 134.42342 32880 ft 546 kts 81°
2026-05-07 14:25 36.84811 134.51664 32876 ft 546 kts 81°
2026-05-07 14:25 36.86176 134.60976 32882 ft 545 kts 81°
2026-05-07 14:26 36.87533 134.70288 32876 ft 545 kts 81°
2026-05-07 14:26 36.88874 134.79542 32876 ft 545 kts 81°
2026-05-07 14:27 36.89998 134.87339 32879 ft 545 kts 81°
2026-05-07 14:27 36.91332 134.96648 32878 ft 544 kts 82°
2026-05-07 14:28 36.92660 135.05961 32880 ft 544 kts 82°
2026-05-07 14:28 36.93979 135.15275 32884 ft 544 kts 82°
2026-05-07 14:29 36.95503 135.26094 32881 ft 544 kts 82°
2026-05-07 14:29 36.96595 135.33893 32882 ft 543 kts 82°
2026-05-07 14:30 36.97881 135.43132 32891 ft 542 kts 82°
2026-05-07 14:30 36.99166 135.52414 32884 ft 542 kts 82°
2026-05-07 14:31 37.00444 135.61704 32882 ft 541 kts 82°
2026-05-07 14:31 37.01711 135.70972 32876 ft 540 kts 82°
2026-05-07 14:32 37.02971 135.80241 32891 ft 540 kts 82°
2026-05-07 14:32 37.04222 135.89502 32871 ft 539 kts 82°